De Queen, AR

7:37 PM CST on January 17, 2020 (GMT -0600)
Helms Sevier County

Weather History for KDEQ - October, 2019

Change the Weather History Date:

Wednesday, October 2, 2019

  Actual Average Record
Temperature  
Mean Temperature 78 °F 67 °F  
Max Temperature 93 °F 80 °F 96 °F (1953)
Min Temperature 64 °F 55 °F 38 °F (1984)
Degree Days  
Heating Degree Days 0 2  
Month to date heating degree days 0 4  
Since 1 July heating degree days 0 13  
Cooling Degree Days 14 4  
Month to date cooling degree days 29 8  
Year to date cooling degree days 2246 1873  
Growing Degree Days 28 (Base 50)    
Moisture  
Dew Point 66 °F    
Average Humidity 83    
Maximum Humidity 94    
Minimum Humidity 41    
Precipitation  
Precipitation 0.00 in 0.16 in 0.35 in (1986)
Month to date precipitation 0.00 0.32  
Year to date precipitation 42.09 35.52  
Snow  
Snow 0.00 in - - ()
Month to date snowfall 0.0  
Since 1 July snowfall 0.0  
Since 1 September snowfall 0.0  
Snow Depth 0.00 in    
Sea Level Pressure  
Sea Level Pressure 29.97 in    
Wind  
Wind Speed 1 mph ()    
Max Wind Speed 14 mph    
Max Gust Speed 18 mph    
Visibility 4.5 miles    
Events Fog    
T = Trace of Precipitation, MM = Missing Value Source: Averaged Metar Reports

Daily Weather History Graph

Daily Weather History Graph

Search for Another Location

Airport or City:

Astronomy

Oct. 02, 2019 Rise Set
Actual Time 7:12 AM CDT 7:00 PM CDT
Civil Twilight 6:47 AM CDT 7:25 PM CDT
Nautical Twilight 6:18 AM CDT 7:54 PM CDT
Astronomical Twilight 5:49 AM CDT 8:23 PM CDT
Moon 11:28 AM CDT (10/2) 10:07 PM CDT (10/2)
Length of Visible Light 12h 37m
Length of Day
11h 48m
Waxing Crescent, 20% of the Moon is Illuminated
Oct 2
Waxing Crescent
Oct 5
First Quarter
Oct 13
Full
Oct 21
Last Quarter
Oct 27
New

Hourly Weather History & Observations

Time (CDT) Temp. Heat Index Dew Point Humidity Pressure Visibility Wind Dir Wind Speed Gust Speed Precip Events Conditions
12:53 AM 69.1 °F - 66.9 °F 93% 29.94 in 5.0 mi Calm Calm - N/A   Clear
1:53 AM 68.0 °F - 66.0 °F 93% 29.94 in 5.0 mi Calm Calm - N/A   Clear
2:53 AM 68.0 °F - 64.9 °F 90% 29.95 in 5.0 mi Calm Calm - N/A   Clear
3:34 AM 66.9 °F - 64.9 °F 93% 29.97 in 2.0 mi Calm Calm - N/A   Clear
3:49 AM 66.2 °F - 64.4 °F 94% 29.97 in 4.0 mi Calm Calm - N/A   Clear
3:53 AM 66.9 °F - 64.9 °F 93% 29.96 in 3.0 mi Calm Calm - N/A   Clear
4:01 AM 66.9 °F - 64.0 °F 90% 29.98 in 1.8 mi Calm Calm - N/A   Clear
4:07 AM 66.0 °F - 64.0 °F 93% 29.98 in 1.0 mi Calm Calm - N/A   Mist
4:20 AM 66.9 °F - 64.9 °F 93% 29.98 in 2.0 mi Calm Calm - N/A   Clear
4:28 AM 66.0 °F - 64.0 °F 93% 29.98 in 6.0 mi Calm Calm - N/A   Clear
4:38 AM 64.9 °F - 63.0 °F 93% 29.99 in 1.8 mi Calm Calm - N/A   Clear
4:53 AM 66.0 °F - 64.0 °F 93% 29.97 in 3.0 mi Calm Calm - N/A   Clear
4:59 AM 66.0 °F - 64.0 °F 93% 29.99 in 1.8 mi Calm Calm - N/A   Clear
5:23 AM 66.0 °F - 64.0 °F 93% 29.99 in 0.5 mi Calm Calm - N/A Fog Fog
5:35 AM 66.0 °F - 64.0 °F 93% 29.99 in 1.0 mi Calm Calm - N/A   Clear
6:01 AM 66.0 °F - 63.0 °F 90% 30.00 in 0.5 mi Calm Calm - N/A Fog Fog
6:06 AM 64.9 °F - 63.0 °F 93% 29.99 in 1.2 mi Calm Calm - N/A   Partly Cloudy
6:11 AM 64.9 °F - 63.0 °F 93% 30.00 in 3.0 mi Calm Calm - N/A   Partly Cloudy
6:15 AM 64.9 °F - 63.0 °F 93% 30.00 in 1.8 mi Calm Calm - N/A   Partly Cloudy
6:19 AM 64.9 °F - 63.0 °F 93% 30.00 in 0.8 mi Calm Calm - N/A   Mist
6:29 AM 64.9 °F - 63.0 °F 93% 30.00 in 0.5 mi Calm Calm - N/A Fog Fog
6:53 AM 64.9 °F - 63.0 °F 93% 29.99 in 0.5 mi Calm Calm - N/A Fog Fog
7:05 AM 64.9 °F - 63.0 °F 93% 30.01 in 1.2 mi Calm Calm - N/A   Partly Cloudy
7:09 AM 64.9 °F - 63.0 °F 93% 30.01 in 3.0 mi East 3.5 mph - N/A   Partly Cloudy
7:31 AM 64.9 °F - 63.0 °F 93% 30.01 in 2.0 mi Calm Calm - N/A   Clear
7:53 AM 66.0 °F - 64.0 °F 93% 30.00 in 2.0 mi Calm Calm - N/A   Clear
8:15 AM 69.1 °F - 66.0 °F 90% 30.01 in 3.0 mi Calm Calm - N/A   Clear
8:53 AM 73.0 °F - 68.0 °F 84% 30.01 in 7.0 mi ENE 4.6 mph - N/A   Clear
9:53 AM 78.1 °F - 70.0 °F 76% 30.01 in 9.0 mi Calm Calm - N/A   Clear
10:53 AM 82.0 °F 85.9 °F 70.0 °F 67% 30.01 in 10.0 mi West 5.8 mph - N/A   Clear
11:53 AM 87.1 °F 92.0 °F 70.0 °F 57% 30.00 in 10.0 mi West 5.8 mph - N/A   Clear
12:53 PM 89.1 °F 92.9 °F 68.0 °F 50% 29.99 in 10.0 mi SW 8.1 mph - N/A   Clear
1:53 PM 91.0 °F 94.3 °F 66.9 °F 45% 29.96 in 10.0 mi SSW 9.2 mph - N/A   Clear
2:53 PM 93.0 °F 96.4 °F 66.9 °F 42% 29.94 in 10.0 mi SW 9.2 mph - N/A   Clear
3:53 PM 91.9 °F 94.5 °F 66.0 °F 42% 29.93 in 10.0 mi SW 8.1 mph - N/A   Clear
4:53 PM 91.9 °F 95.4 °F 66.9 °F 44% 29.91 in 10.0 mi SSW 8.1 mph - N/A   Clear
5:53 PM 90.0 °F 93.6 °F 68.0 °F 48% 29.91 in 10.0 mi SSW 4.6 mph - N/A   Clear
6:53 PM 82.9 °F 88.8 °F 73.0 °F 72% 29.91 in 10.0 mi Calm Calm - N/A   Clear
7:53 PM 78.1 °F - 72.0 °F 81% 29.91 in 10.0 mi East 3.5 mph - N/A   Clear
8:53 PM 75.9 °F - 71.1 °F 85% 29.94 in 8.0 mi Calm Calm - N/A   Clear
9:53 PM 73.9 °F - 71.1 °F 91% 29.95 in 4.0 mi Calm Calm - N/A   Clear
10:53 PM 72.0 °F - 70.0 °F 93% 29.96 in 2.5 mi Calm Calm - N/A   Clear
11:03 PM 72.0 °F - 70.0 °F 93% 29.97 in 3.0 mi Calm Calm - N/A   Clear
11:53 PM 71.1 °F - 69.1 °F 93% 29.96 in 4.0 mi Calm Calm - N/A   Clear